IQ7ET-13 Weather Reports


time (UTC)temp
C
wind
direction
speed
KPH
gust
KPH
rain 1hr
cm
rain 24hr
cm
rain mn
cm
humidity
%
barometer
mb
20260906051526 26 4 12.9 20.9 0.00 0.00 0.00 42 1020.0
20260906050006 26 324 11.3 20.9 0.00 0.00 0.00 42 1019.8
20260906044545 25 333 12.9 20.9 0.00 0.00 0.00 43 1019.8
20260906043021 25 314 12.9 20.9 0.00 0.00 0.00 44 1019.7
20260906041558 25 291 14.5 20.9 0.00 0.00 0.00 45 1019.7
20260906040041 25 314 14.5 20.9 0.00 0.00 0.00 47 1019.7
20260906034523 25 281 12.9 20.9 0.00 0.00 0.00 47 1019.5
20260906033048 25 297 11.3 17.7 0.00 0.00 0.00 48 1019.6
20260906031529 25 289 11.3 17.7 0.00 0.00 0.00 48 1019.5
20260906030007 25 297 9.7 14.5 0.00 0.00 0.00 49 1019.5
20260906024542 25 278 8.0 14.5 0.00 0.00 0.00 51 1019.5
20260906023022 25 291 8.0 14.5 0.00 0.00 0.00 52 1019.6
20260906021559 25 298 11.3 22.5 0.00 0.00 0.00 49 1019.7
20260906020037 25 274 14.5 22.5 0.00 0.00 0.00 50 1019.6
20260906014520 25 275 12.9 19.3 0.00 0.00 0.00 53 1019.7
20260906013050 25 280 9.7 17.7 0.00 0.00 0.00 53 1019.7
20260906011526 26 273 9.7 19.3 0.00 0.00 0.00 52 1019.7
20260906010006 26 277 9.7 16.1 0.00 0.00 0.00 51 1019.8
20260906004546 26 257 9.7 16.1 0.00 0.00 0.00 52 1019.8
20260906003022 26 277 9.7 14.5 0.00 0.00 0.00 52 1019.8
20260906001603 26 276 9.7 14.5 0.00 0.00 0.00 50 1019.7
20260906001502 26 270 9.7 14.5 0.00 0.00 0.00 50 1019.7
20260906000039 27 270 6.4 11.3 0.00 0.00 0.00 51 1019.9
20260905234516 27 264 6.4 12.9 0.00 0.00 0.00 52 1019.9
20260905233105 26 252 3.2 6.4 0.00 0.00 0.00 54 1020.0
20260905231530 27 231 0.0 8.0 0.00 0.00 0.00 62 1020.0
20260905230057 27 228 1.6 6.4 0.00 0.00 0.00 61 1020.0
20260905230003 27 225 1.6 6.4 0.00 0.00 0.00 60 1020.1
20260905224552 27 221 3.2 6.4 0.00 0.00 0.00 60 1020.2
20260905223009 27 217 1.6 6.4 0.00 0.00 0.00 56 1020.2
20260905221543 27 215 3.2 8.0 0.00 0.00 0.00 42 1020.3
20260905220024 27 212 1.6 6.4 0.00 0.00 0.00 42 1020.1
20260905214556 27 169 1.6 9.7 0.00 0.00 0.00 42 1020.0
20260905214501 27 160 1.6 9.7 0.00 0.00 0.00 42 1020.1
20260905213036 27 174 0.0 8.0 0.00 0.00 0.00 42 1020.1
20260905211517 27 190 3.2 8.0 0.00 0.00 0.00 43 1020.1
20260905210050 27 135 4.8 8.0 0.00 0.00 0.00 43 1020.1
20260905204529 27 167 1.6 9.7 0.00 0.00 0.00 42 1020.3
20260905203005 27 160 3.2 9.7 0.00 0.00 0.00 43 1020.4
20260905201544 27 163 0.0 4.8 0.00 0.00 0.00 42 1020.4
20260905200016 27 113 0.0 8.0 0.00 0.00 0.00 42 1020.5
20260905194554 27 147 3.2 8.0 0.00 0.00 0.00 41 1020.5
20260905193033 27 171 0.0 6.4 0.00 0.00 0.00 42 1020.6
20260905191510 27 170 0.0 4.8 0.00 0.00 0.00 43 1020.4
20260905190100 27 165 0.0 6.4 0.00 0.00 0.00 54 1020.3
20260905184520 27 189 1.6 8.0 0.00 0.00 0.00 51 1020.1
20260905183054 27 162 1.6 6.4 0.00 0.00 0.00 49 1019.9
20260905181528 27 124 3.2 8.0 0.00 0.00 0.00 46 1019.8
20260905180011 27 172 1.6 8.0 0.00 0.00 0.00 45 1019.7
20260905174553 27 177 1.6 8.0 0.00 0.00 0.00 48 1019.5
20260905173030 28 143 0.0 4.8 0.00 0.00 0.00 49 1019.4
20260905171502 28 142 0.0 6.4 0.00 0.00 0.00 48 1019.4
20260905170037 28 179 0.0 4.8 0.00 0.00 0.00 50 1019.3
20260905164517 29 103 1.6 8.0 0.00 0.00 0.00 48 1019.3
20260905163051 30 165 0.0 8.0 0.00 0.00 0.00 46 1019.4
20260905161531 30 80 0.0 11.3 0.00 0.00 0.00 46 1019.3
20260905160007 30 176 1.6 11.3 0.00 0.00 0.00 44 1019.2
20260905154545 31 134 3.2 11.3 0.00 0.00 0.00 45 1019.3
20260905153024 31 53 4.8 14.5 0.00 0.00 0.00 42 1019.2
20260905151559 31 51 6.4 17.7 0.00 0.00 0.00 41 1019.1
20260905151501 31 103 3.2 17.7 0.00 0.00 0.00 40 1019.3
20260905150038 32 138 4.8 14.5 0.00 0.00 0.00 36 1019.3
20260905144517 33 181 0.0 19.3 0.00 0.00 0.00 30 1019.4
20260905143055 33 175 4.8 17.7 0.00 0.00 0.00 27 1019.2
20260905141531 33 179 3.2 14.5 0.00 0.00 0.00 27 1019.4
20260905140010 33 106 8.0 14.5 0.00 0.00 0.00 26 1019.4
20260905134544 33 162 11.3 22.5 0.00 0.00 0.00 28 1019.4
20260905133024 33 186 3.2 17.7 0.00 0.00 0.00 29 1019.6
20260905131508 33 168 4.8 20.9 0.00 0.00 0.00 31 1019.7
20260905130039 33 105 9.7 19.3 0.00 0.00 0.00 32 1019.7
20260905124535 33 124 6.4 20.9 0.00 0.00 0.00 32 1020.0
20260905123059 33 236 6.4 20.9 0.00 0.00 0.00 33 1020.1
20260905121536 33 72 8.0 17.7 0.00 0.00 0.00 33 1020.2
20260905120010 33 164 8.0 20.9 0.00 0.00 0.00 32 1020.3
20260905114549 33 85 6.4 19.3 0.00 0.00 0.00 30 1020.4
20260905113028 33 134 9.7 22.5 0.00 0.00 0.00 28 1020.6
20260905111504 33 169 8.0 16.1 0.00 0.00 0.00 29 1020.5
20260905110043 32 184 1.6 16.1 0.00 0.00 0.00 29 1020.6
20260905104518 32 99 1.6 14.5 0.00 0.00 0.00 28 1020.7
20260905103056 32 179 3.2 12.9 0.00 0.00 0.00 29 1020.9
20260905101530 32 155 6.4 14.5 0.00 0.00 0.00 30 1020.9
20260905100007 32 173 4.8 11.3 0.00 0.00 0.00 30 1021.1
20260905094540 32 157 6.4 16.1 0.00 0.00 0.00 30 1021.2
20260905093020 31 146 3.2 12.9 0.00 0.00 0.00 30 1021.2
20260905091616 31 158 4.8 14.5 0.00 0.00 0.00 30 1021.3
20260905090036 31 158 3.2 11.3 0.00 0.00 0.00 30 1021.3
20260905084541 31 184 6.4 11.3 0.00 0.00 0.00 30 1021.3
20260905083049 31 37 3.2 9.7 0.00 0.00 0.00 31 1021.2
20260905081529 30 203 0.0 4.8 0.00 0.00 0.00 32 1021.2
20260905080006 28 251 0.0 3.2 0.00 0.00 0.00 35 1021.1
20260905074544 27 269 1.6 8.0 0.00 0.00 0.00 37 1021.1
20260905073023 27 273 3.2 9.7 0.00 0.00 0.00 37 1020.9
20260905071601 26 269 4.8 9.7 0.00 0.00 0.00 37 1020.8
20260905070037 26 278 4.8 8.0 0.00 0.00 0.00 34 1020.7
20260905064513 26 269 1.6 9.7 0.00 0.00 0.00 36 1020.6
20260905063054 25 259 6.4 11.3 0.00 0.00 0.00 36 1020.6
20260905061526 25 265 4.8 9.7 0.00 0.00 0.00 37 1020.8
20260905060007 26 285 4.8 8.0 0.00 0.00 0.00 38 1020.8
20260905054542 26 296 3.2 9.7 0.00 0.00 0.00 38 1020.8
20260905053023 26 292 6.4 9.7 0.00 0.00 0.00 38 1020.7